Lexington Weather

Lexington, Massachusetts, USA

45°F
4/22/2024 9:29am 
  • Lexington Conditions: Clear
  • Temperature: 44.8°F / 7.1°CWarmer 2.5°F than last hour.
  • Dew Point: 26.2°FDecreased 1.1°Fsince last hour.
  • Relative Humidity: 48%Decreased 7.0% since last hour.
  • Wind: Calm, 10-min avg: Calm, gust: 6 mph
  • Barometer: 29.97 inRising 0.02  inHg/hr Rising Slowly
  • Visibility: 10 miles
  • Rain Today: 0.00 in
  •   

Regional Weather Roundup
for Boston, MA

        
000
ASUS41 KBOX 200910
RWRBOX

REGIONAL WEATHER ROUNDUP
NATIONAL WEATHER SERVICE BOSTON/NORTON MA
500 AM EDT SAT APR 20 2024

NOTE:  "FAIR" INDICATES FEW OR NO CLOUDS BELOW 12,000 FEET WITH NO 
SIGNIFICANT WEATHER AND/OR OBSTRUCTIONS TO VISIBILITY.

MAZALL-201000-
EASTERN MASSACHUSETTS
  
CITY           SKY/WX    TMP DP  RH WIND       PRES   REMARKS
BOSTON         CLOUDY    48  44  86 S9        29.97F                  
BEVERLY        CLOUDY    48  43  82 S7        29.95F                  
LAWRENCE       CLOUDY    48  42  80 S6        29.97F                  
BEDFORD        CLOUDY    47  43  86 S6        29.95F                  
NORWOOD        CLOUDY    49  44  83 S6        29.97F                  
MARSHFIELD     CLOUDY    46  45  93 VRB6      29.98F FOG              
PLYMOUTH       CLOUDY    47  45  93 SW3       29.98F                  
TAUNTON        CLOUDY    48  45  89 S3        29.99F FOG              
NEW BEDFORD    CLOUDY    47  45  93 S6        29.99F FOG              
$$

MAZALL-201000-
CAPE COD AND THE ISLANDS
  
CITY           SKY/WX    TMP DP  RH WIND       PRES   REMARKS
FALMOUTH       CLOUDY    46  45  93 S6        30.00                   
HYANNIS        CLOUDY    46  44  93 S5        29.99S                  
CHATHAM        CLOUDY    45  42  89 S3        30.00F                  
PROVINCETOWN   LGT RAIN  46  46 100 S7        30.00F                  
NANTUCKET      CLOUDY    46  45  96 SE5       30.00S                  
MARTHAS VNYRD  CLOUDY    47  45  93 S5        29.99F                  
$$
 
MAZALL-201000-
CENTRAL AND WESTERN MASSACHUSETTS
  
CITY           SKY/WX    TMP DP  RH WIND       PRES   REMARKS
WORCESTER      CLOUDY    45  43  93 SW10      29.94F FOG              
FITCHBURG      CLOUDY    48  42  80 S7        29.95F                  
ORANGE         LGT RAIN  46  45  96 S7        29.96S                  
SPRINGFIELD    LGT RAIN  47  45  93 S6        29.93S                  
WESTFIELD      LGT RAIN  47  45  93 SE3       29.94F                  
NORTH ADAMS    CLOUDY    51  46  83 CALM      29.92F                  
PITTSFIELD     CLOUDY    47  44  90 CALM      29.91F                  
$$
 
RIZALL-201000-
RHODE ISLAND
  
CITY           SKY/WX    TMP DP  RH WIND       PRES   REMARKS
PROVIDENCE     CLOUDY    46  46 100 S6        29.99F FOG              
NEWPORT        CLOUDY    45  44  97 S5        29.99F                  
BLOCK ISLAND   FOG       44  43  96 S5        29.99F VSB 1            
SMITHFIELD     CLOUDY    45  45 100 VRB5      29.98F FOG              
WESTERLY       CLOUDY    45  43  93 CALM      29.99F FOG              
$$
 
CTZALL-201000-
CONNECTICUT
  
CITY           SKY/WX    TMP DP  RH WIND       PRES   REMARKS
BRADLEY INTL   CLOUDY    49  46  90 S7        29.95F FOG              
HARTFORD       CLOUDY    47  46  97 S5        29.96F                  
PLAINVILLE     CLOUDY    47  47 100 S5        29.96S                  
BRIDGEPORT     CLOUDY    48  46  93 S5        29.97F                  
DANBURY        CLOUDY    49  46  90 SW3       29.97S                  
GROTON         LGT RAIN  47  47 100 SE5       29.97F VSB 3/4          
NEW HAVEN      CLOUDY    49  47  93 S5        29.97F FOG              
CHESTER        FOG       46  46 100 SW3       29.97S VSB 1/4          
MERIDEN        CLOUDY    47  44  90 S3        29.97F                  
WILLIMANTIC    CLOUDY    46  45  96 S3        29.98F                  
OXFORD         CLOUDY    45  45 100 CALM      29.96F FOG              
$$

MEZ002-015-021-024-NHZ003-005-008-011-012-014-VTZ005-008-201000-
NORTHERN NEW ENGLAND
  
CITY           SKY/WX    TMP DP  RH WIND       PRES   REMARKS
PORTLAND ME    LGT RAIN  46  41  82 S9        29.94F                  
BANGOR ME      CLOUDY    46  37  71 S8        29.93F                  
CONCORD NH     CLOUDY    46  42  86 S6        29.93F                  
MANCHESTER NH  LGT RAIN  49  41  74 S7        29.92F                  
NASHUA NH      CLOUDY    48  46  93 VRB3      29.95F                  
PORTSMOUTH NH  CLOUDY    49  41  75 S6        29.94F                  
JAFFREY NH     CLOUDY    46  42  86 S6        29.93F                  
KEENE NH       LGT RAIN  46  45  96 CALM      29.94S                  
BURLINGTON VT  CLOUDY    51  44  77 NW5       29.87F                  
MT. WASHINGTON FOG       30  30 100 W45         N/A  VSB 0   WCI  12  
$$

NYZ052-076-201000-
EASTERN NEW YORK
  
CITY           SKY/WX    TMP DP  RH WIND       PRES   REMARKS
ALBANY         CLOUDY    51  45  79 S9        29.93F                  
NEW YORK CITY  CLOUDY    49  44  83 S8        29.97F                  
$$
 
ANZALL-201000-
MARINE OBSERVATIONS
  
STATION/POSITION TIME  TEMP    WIND        PRES    VSBY  WAVE
                       AIR SEA DIR/SP/G                  HT/PER
                 (UTC) (F)     (DEG/KT/KT) (MB)    (MI)  (FT/S)
BOSTON BUOY      0850   46     190/  8/ 10 1015.0F         2/10
BUZZARDS BAY     0800   45     200/  3/  4 1016.7R
NANTUCKET SOUND  0850   47 47  180/  6/  8 1015.6S         1
MASS BAY-STELLWA 0704   46 45  180/ 10/ 14 1015.9F  1 7/8  2/ 3
ISLE OF SHOALS   0800   47     190/ 16/ 18 1014.2F
S OF BLOCK IS    0856      44                N/A           5/ 8
$$

......................KEY.........................
  SKY/WX - SKY CONDITION/PRESENT WEATHER
  TMP    - TEMPERATURE IN FAHRENHEIT
  DWPT   - DEWPOINT IN FAHRENHEIT
  RH     - RELATIVE HUMIDITY IN PERCENT
  WIND   - DIRECTION AND SPEED IN MPH
  PRES   - MEAN SEA LEVEL PRESSURE IN INCHES OF HG
  WCI    - WIND CHILL INDEX
  VSB    - VISIBILITY IN MILES
  HX     - HEAT INDEX
  TC     - TEMPERATURE IN CELSIUS
  VRB    - VARIABLE WIND DIRECTION
  N/A    - NOT AVAILABLE
  
      

Other recent Regional Weather Roundups

Mon Apr 22, 9:10am EDT

Mon Apr 22, 8:10am EDT

Mon Apr 22, 7:10am EDT

Mon Apr 22, 6:10am EDT

Mon Apr 22, 5:10am EDT

Mon Apr 22, 4:10am EDT

Mon Apr 22, 3:10am EDT

Mon Apr 22, 2:10am EDT

Mon Apr 22, 1:10am EDT

Mon Apr 22, 12:10am EDT

Sun Apr 21, 11:10pm EDT

Sun Apr 21, 10:10pm EDT

Sun Apr 21, 9:10pm EDT

Sun Apr 21, 8:10pm EDT

Sun Apr 21, 7:10pm EDT

Sun Apr 21, 6:10pm EDT

Sun Apr 21, 5:10pm EDT

Sun Apr 21, 4:10pm EDT

Sun Apr 21, 3:10pm EDT

Sun Apr 21, 2:10pm EDT

Sun Apr 21, 1:10pm EDT

Sun Apr 21, 12:10pm EDT

Sun Apr 21, 11:10am EDT

Sun Apr 21, 10:10am EDT

Sun Apr 21, 9:10am EDT

Sun Apr 21, 8:10am EDT

Sun Apr 21, 7:10am EDT

Sun Apr 21, 6:10am EDT

Sun Apr 21, 5:10am EDT

Sun Apr 21, 4:10am EDT

Sun Apr 21, 3:10am EDT

Sun Apr 21, 2:10am EDT

Sun Apr 21, 1:10am EDT

Sun Apr 21, 12:10am EDT

Sat Apr 20, 11:10pm EDT

Sat Apr 20, 10:10pm EDT

Sat Apr 20, 9:10pm EDT

Sat Apr 20, 8:10pm EDT

Sat Apr 20, 7:10pm EDT

Sat Apr 20, 6:10pm EDT

Sat Apr 20, 5:10pm EDT

Sat Apr 20, 4:10pm EDT

Sat Apr 20, 3:10pm EDT

Sat Apr 20, 2:10pm EDT

Sat Apr 20, 1:10pm EDT

Sat Apr 20, 12:10pm EDT

Sat Apr 20, 11:10am EDT

Sat Apr 20, 10:10am EDT

Sat Apr 20, 9:10am EDT

Sat Apr 20, 8:10am EDT

Sat Apr 20, 7:10am EDT

Sat Apr 20, 6:10am EDT

Sat Apr 20, 4:10am EDT

Sat Apr 20, 3:10am EDT

Sat Apr 20, 2:10am EDT

Sat Apr 20, 1:10am EDT

Sat Apr 20, 12:10am EDT

Fri Apr 19, 11:10pm EDT

Fri Apr 19, 10:10pm EDT

Fri Apr 19, 9:10pm EDT

Fri Apr 19, 8:10pm EDT

Fri Apr 19, 7:10pm EDT

Fri Apr 19, 6:10pm EDT

Fri Apr 19, 5:10pm EDT

Fri Apr 19, 4:10pm EDT

Fri Apr 19, 3:10pm EDT

Fri Apr 19, 2:10pm EDT

Fri Apr 19, 1:10pm EDT

Fri Apr 19, 12:10pm EDT

Fri Apr 19, 11:10am EDT

Fri Apr 19, 10:10am EDT

Fri Apr 19, 9:10am EDT

Fri Apr 19, 8:10am EDT

Fri Apr 19, 7:10am EDT

Fri Apr 19, 6:10am EDT

Fri Apr 19, 5:10am EDT

Fri Apr 19, 4:10am EDT

Fri Apr 19, 3:10am EDT

Fri Apr 19, 2:10am EDT

Fri Apr 19, 1:10am EDT

Fri Apr 19, 12:10am EDT

Thu Apr 18, 11:10pm EDT

Thu Apr 18, 10:10pm EDT

Thu Apr 18, 9:10pm EDT

Thu Apr 18, 8:10pm EDT

Thu Apr 18, 7:10pm EDT

Thu Apr 18, 6:10pm EDT

Thu Apr 18, 5:10pm EDT

Thu Apr 18, 4:10pm EDT

Thu Apr 18, 3:10pm EDT

Thu Apr 18, 2:10pm EDT

Thu Apr 18, 1:10pm EDT

Thu Apr 18, 12:10pm EDT

Thu Apr 18, 11:10am EDT

Thu Apr 18, 10:10am EDT

Thu Apr 18, 9:10am EDT

Thu Apr 18, 8:10am EDT

Thu Apr 18, 7:10am EDT

Thu Apr 18, 6:10am EDT

Thu Apr 18, 5:10am EDT

Thu Apr 18, 4:10am EDT

Thu Apr 18, 3:10am EDT

Thu Apr 18, 2:10am EDT

Thu Apr 18, 1:10am EDT

Thu Apr 18, 12:10am EDT

Wed Apr 17, 11:10pm EDT

Wed Apr 17, 10:10pm EDT

Wed Apr 17, 9:10pm EDT

Wed Apr 17, 8:10pm EDT

Wed Apr 17, 7:10pm EDT

Wed Apr 17, 6:10pm EDT

Wed Apr 17, 5:10pm EDT

Wed Apr 17, 4:10pm EDT

Wed Apr 17, 3:10pm EDT

Wed Apr 17, 2:10pm EDT

Wed Apr 17, 1:10pm EDT

Wed Apr 17, 12:10pm EDT

Wed Apr 17, 11:10am EDT

Wed Apr 17, 10:10am EDT

Wed Apr 17, 9:10am EDT

Wed Apr 17, 8:10am EDT

Wed Apr 17, 7:10am EDT

Wed Apr 17, 6:10am EDT

Wed Apr 17, 5:10am EDT

Wed Apr 17, 4:10am EDT

Wed Apr 17, 3:10am EDT

Wed Apr 17, 2:10am EDT

Wed Apr 17, 1:10am EDT

Wed Apr 17, 12:10am EDT

Tue Apr 16, 11:10pm EDT

Tue Apr 16, 10:10pm EDT

Tue Apr 16, 9:10pm EDT

Tue Apr 16, 8:10pm EDT

Tue Apr 16, 7:10pm EDT

Tue Apr 16, 6:10pm EDT

Tue Apr 16, 5:10pm EDT

Tue Apr 16, 4:10pm EDT

Tue Apr 16, 3:10pm EDT

Tue Apr 16, 2:10pm EDT

Tue Apr 16, 1:10pm EDT

Tue Apr 16, 12:10pm EDT

Tue Apr 16, 11:10am EDT

Tue Apr 16, 10:10am EDT

Tue Apr 16, 9:10am EDT

Tue Apr 16, 8:10am EDT

Tue Apr 16, 7:10am EDT

Tue Apr 16, 6:10am EDT

Tue Apr 16, 5:10am EDT

Tue Apr 16, 4:10am EDT

Tue Apr 16, 3:10am EDT

Tue Apr 16, 2:10am EDT

Tue Apr 16, 1:10am EDT

Tue Apr 16, 12:10am EDT

Mon Apr 15, 11:10pm EDT

Mon Apr 15, 10:10pm EDT

Mon Apr 15, 9:10pm EDT

Mon Apr 15, 8:10pm EDT

Mon Apr 15, 7:10pm EDT

Mon Apr 15, 6:10pm EDT

Mon Apr 15, 5:10pm EDT

Mon Apr 15, 4:10pm EDT

Mon Apr 15, 3:10pm EDT

Mon Apr 15, 2:10pm EDT

Mon Apr 15, 1:10pm EDT

Mon Apr 15, 12:10pm EDT

Mon Apr 15, 11:10am EDT

Mon Apr 15, 10:10am EDT